Station 46006 (LLNR 510) - SOUTHEAST PAPA - 600NM West of Eureka, CA Image indicating link to RSS feed of recent meteorological observations for station 46006


Conditions at 46006 as of
(11:40 pm PDT on 07/23/2024)
0640 GMT on 07/24/2024:
     

Click on the graph icon in the table below to see a time series plot of the last five days of that observation.

5-day plot - Wind Direction Wind Direction (WDIR):NNW ( 340 deg true )
5-day plot - Wind Speed Wind Speed (WSPD): 13.6 kts
5-day plot - Wind Gust Wind Gust (GST): 19.4 kts
5-day plot - Atmospheric Pressure Atmospheric Pressure (PRES):30.45 in
5-day plot - Air Temperature Air Temperature (ATMP): 64.2 °F
5-day plot - Water Temperature Water Temperature (WTMP): 67.3 °F
5-day plot - Dew Point Dew Point (DEWP): 58.6 °F
5-day plot - Wind Speed at 10 Meters Wind Speed at 10 meters (WSPD10M): 15.5 kts
5-day plot - Wind Speed at 20 Meters Wind Speed at 20 meters (WSPD20M): 15.5 kts
5-day plot -  Wind Speed, Wind Gust and Atmospheric Pressure Combined plot of Wind Speed, Gust, and Air Pressure
Supplemental Measurements
Highest 1-minute Wind Speed
Time (PDT)5-day plot - 1-Minute Wind Speed WSPD 5-day plot - 1-Minute Wind Direction WDIR
11:35 pm 15.5 kts-
Previous observations
TIME
(PDT)
5-day plot - Wind Direction
WDIR
 
5-day plot - Wind Speed
WSPD
kts
5-day plot - Wind Gust
GST
kts
5-day plot - Wave Height
WVHT
ft
5-day plot - Dominant Wave Period
DPD
sec
5-day plot - Average Wave Period
APD
sec
5-day plot - Mean Wave Direction
MWD
 
5-day plot - Atmospheric Pressure
PRES
in
5-day plot - Pressure Tendency
PTDY
in
5-day plot - Air Temperature
ATMP
°F
5-day plot - Water Temperature
WTMP
°F
5-day plot - Dew Point
DEWP
°F
5-day plot - Salinity
SAL
psu
5-day plot - Visibility
VIS
nmi
5-day plot - Tide (above MLLW)
TIDE
ft
2024-07-23 11:30 pmNNW 11.7 15.5----30.45- 64.0 67.3 57.7---
2024-07-23 11:20 pmNNW 15.5 19.4 5.6 85.2NNW30.45- 64.2 67.3 58.1---
2024-07-23 11:10 pmNNW 13.6 17.5 5.6-5.2NNW30.45- 64.2 67.3 58.3---
2024-07-23 11:00 pmNNW 13.6 19.4----30.44+0.03 64.2 67.3 58.5---
2024-07-23 10:50 pmNNW 13.6 17.5 5.6 75.4NNW30.44- 64.0 67.3 58.5---
2024-07-23 10:40 pmNNW 13.6 17.5----30.44- 64.0 67.3 58.6---
2024-07-23 10:30 pmNNW 15.5 19.4----30.44- 64.0 67.3 58.8---
2024-07-23 10:20 pmNNW 15.5 19.4 5.6 95.3 NW30.43- 64.2 67.3 58.8---
2024-07-23 10:10 pmNNW 15.5 21.4 5.6-5.3 NW30.43- 64.2 67.3 58.6---
2024-07-23 10:00 pmNNW 15.5 21.4----30.42+0.01 64.2 67.3 58.8---
2024-07-23 09:50 pmNNW 13.6 17.5 5.6 85.3NNW30.42- 63.9 67.3 58.3---
2024-07-23 09:40 pmNNW 15.5 21.4----30.42- 63.9 67.3 58.5---
2024-07-23 09:30 pmNNW 15.5 21.4----30.42- 64.2 67.3 59.2---
2024-07-23 09:20 pmNNW 15.5 19.4 6.2 85.5NNW30.42- 64.4 67.3 59.4---
2024-07-23 09:10 pmNNW 15.5 19.4----30.42- 63.9 67.3 59.4---
2024-07-23 09:00 pmNNW 15.5 21.4----30.42+0.00 63.9 67.3 59.7---
2024-07-23 08:50 pmNNW 17.5 21.4 5.2 85.0NNW30.42- 64.0 67.3 60.1---
2024-07-23 08:40 pmNNW 15.5 23.3 5.2-5.0NNW30.42- 64.0 67.3 60.3---
2024-07-23 08:30 pmNNW 15.5 21.4----30.42- 64.2 67.3 60.1---
2024-07-23 08:20 pmNNW 15.5 19.4 5.6 85.2NNW30.42- 64.4 67.3 59.7---
2024-07-23 08:10 pmNNW 15.5 21.4 5.6-5.2NNW30.41- 64.4 67.3 60.3---
2024-07-23 08:00 pmNNW 15.5 19.4----30.41-0.01 63.9 67.3 60.3---
2024-07-23 07:50 pmNNW 17.5 21.4 5.6 95.4NNW30.41- 64.4 67.5 60.4---
2024-07-23 07:40 pmNNW 17.5 21.4----30.41- 64.6 67.5 60.4---
2024-07-23 07:30 pmNNW 15.5 23.3----30.41- 64.6 67.5 60.1---
2024-07-23 07:20 pmNNW 15.5 21.4 5.2 85.4NNW30.41- 64.8 67.5 59.9---
2024-07-23 07:10 pmNNW 15.5 21.4 5.2-5.4NNW30.41- 64.4 67.5 59.7---
2024-07-23 07:00 pmNNW 15.5 17.5----30.41-0.02 64.6 67.5 60.1---
2024-07-23 06:50 pmNNW 15.5 21.4 5.2 85.4NNW30.41- 64.4 67.5 60.1---
2024-07-23 06:40 pmNNW 17.5 21.4----30.41- 64.4 67.5 60.3---
2024-07-23 06:30 pmNNW 13.6 17.5----30.41- 64.6 67.5 60.6---
2024-07-23 06:20 pmNNW 15.5 19.4 5.2 85.6NNW30.41- 64.4 67.5 60.3---
2024-07-23 06:10 pmNNW 15.5 19.4 5.2-5.6NNW30.41- 64.2 67.5 60.3---
2024-07-23 06:00 pm NW 15.5 19.4----30.42-0.03 64.0 67.5 60.1---
2024-07-23 05:50 pmNNW 15.5 19.4 5.9 85.7NNW30.42- 64.2 67.5 60.1---
2024-07-23 05:40 pmNNW 13.6 17.5----30.42- 64.0 67.5 60.1---
2024-07-23 05:30 pmNNW 15.5 21.4----30.42- 64.2 67.5 60.1---
2024-07-23 05:20 pmNNW 15.5 19.4 5.6 95.6NNW30.42- 64.4 67.5 59.9---
2024-07-23 05:10 pm NW 15.5 17.5 5.6-5.6NNW30.42- 64.4 67.5 59.5---
2024-07-23 05:00 pmNNW 15.5 19.4----30.42-0.02 64.4 67.5 59.5---
2024-07-23 04:50 pmNNW 15.5 19.4 5.2 85.6NNW30.42- 64.4 67.5 59.7---
2024-07-23 04:40 pm NW 15.5 17.5----30.42- 64.2 67.5 60.1---
2024-07-23 04:10 pm NW 13.6 17.5 5.2-5.6NNW30.42- 64.6 67.5 59.4---
2024-07-23 04:00 pm NW 13.6 17.5----30.43-0.02 64.2 67.5 59.7---
2024-07-23 03:50 pmNNW 13.6 19.4 5.2 85.8NNW30.43- 64.2 67.5 60.1---
2024-07-23 03:40 pmNNW 13.6 17.5----30.43- 64.2 67.5 60.3---
2024-07-23 03:30 pm NW 13.6 17.5----30.43- 64.4 67.5 60.1---
2024-07-23 03:20 pm NW 11.7 15.5 5.2 85.6NNW30.43- 64.4 67.5 59.4---
2024-07-23 03:10 pm NW 11.7 15.5 5.2-5.6NNW30.44- 64.4 67.5 59.4---
2024-07-23 03:00 pm NW 13.6 17.5----30.44-0.02 64.2 67.5 59.2---
2024-07-23 02:50 pm NW 15.5 19.4 4.6 85.5NNW30.44- 64.0 67.5 58.5---
2024-07-23 02:40 pmNNW 13.6 17.5 4.6-5.5NNW30.44- 63.9 67.5 58.8---
2024-07-23 02:30 pmNNW 13.6 15.5----30.44- 64.4 67.5 59.5---
2024-07-23 02:20 pmNNW 13.6 15.5 4.6 85.5 NW30.44- 64.4 67.5 58.8---
2024-07-23 02:10 pmNNW 11.7 15.5 4.6-5.5 NW30.44- 64.2 67.5 58.6---
2024-07-23 02:00 pmNNW 11.7 13.6----30.44-0.02 64.2 67.5 58.5---
2024-07-23 01:50 pmNNW 11.7 15.5 4.6 95.5NNW30.44- 64.2 67.5 57.7---
2024-07-23 01:40 pmNNW 11.7 15.5----30.44- 64.2 67.5 57.4---
2024-07-23 01:30 pmNNW 11.7 15.5----30.45- 64.4 67.3 57.2---
2024-07-23 01:20 pmNNW 13.6 17.5 4.6 85.6 NW30.45- 64.4 67.3 57.0---
2024-07-23 01:10 pmNNW 13.6 15.5 4.6-5.6 NW30.45- 64.4 67.3 57.4---
2024-07-23 01:00 pmNNW 13.6 17.5----30.45-0.01 64.0 67.3 57.9---
2024-07-23 12:50 pmNNW 11.7 15.5 4.3 85.5NNW30.45- 63.7 67.3 58.3---
2024-07-23 12:40 pmNNW 11.7 15.5----30.45- 64.0 67.3 58.5---
2024-07-23 12:30 pmNNW 9.7 13.6----30.46- 64.0 67.3 57.9---
2024-07-23 12:20 pmNNW 11.7 13.6 4.6 85.5NNW30.46- 64.2 67.3 57.2---
2024-07-23 12:10 pmNNW 11.7 13.6 4.6-5.5NNW30.45- 64.4 67.3 57.0---
2024-07-23 12:00 pmNNW 11.7 15.5----30.46+0.00 64.4 67.3 56.7---
2024-07-23 11:50 am NW 11.7 15.5 4.6 85.7NNW30.46- 64.4 67.3 56.7---
2024-07-23 11:40 amNNW 11.7 15.5----30.45- 64.2 67.3 56.8---
2024-07-23 11:30 amNNW 11.7 15.5----30.45- 64.0 67.3 57.6---
2024-07-23 11:20 amNNW 9.7 13.6 4.3 85.4NNW30.46- 63.7 67.3 58.3---
2024-07-23 11:10 amNNW 9.7 11.7 4.3-5.4NNW30.45- 63.3 67.3 57.9---
2024-07-23 11:00 am NW 11.7 13.6----30.45+0.01 63.1 67.3 58.5---
2024-07-23 10:50 am NW 13.6 17.5 4.6 75.8NNW30.45- 63.3 67.3 58.3---
2024-07-23 10:40 amNNW 13.6 15.5----30.45- 63.9 67.3 57.9---
2024-07-23 10:30 amNNW 11.7 15.5----30.45- 64.0 67.3 58.1---
2024-07-23 10:20 amNNW 11.7 13.6 4.3 75.5 NW30.45- 63.7 67.3 58.1---
2024-07-23 10:10 am NW 9.7 13.6 4.3-5.5 NW30.45- 63.7 67.3 58.5---
2024-07-23 10:00 am NW 11.7 13.6----30.45+0.01 63.5 67.3 58.1---
2024-07-23 09:50 am NW 9.7 13.6 3.9 85.4NNW30.46- 62.8 67.1 57.6---
2024-07-23 09:40 amNNW 11.7 15.5----30.46- 62.6 67.1 57.9---
2024-07-23 09:30 amNNW 13.6 17.5----30.46- 63.1 67.3 58.6---
2024-07-23 09:20 amNNW 13.6 17.5 3.9 85.6 NW30.45- 63.5 67.3 58.6---
2024-07-23 09:10 amNNW 13.6 15.5 3.9-5.6 NW30.45- 64.0 67.3 58.1---
2024-07-23 09:00 am NW 9.7 13.6----30.45+0.01 63.7 67.3 56.8---
2024-07-23 08:50 am NW 11.7 15.5 3.6 145.6 S30.45- 63.5 67.3 57.2---
2024-07-23 08:40 am NW 11.7 17.5----30.45- 63.7 67.3 57.0---
2024-07-23 08:30 am NW 9.7 13.6----30.45- 63.5 67.3 57.2---
2024-07-23 08:20 am NW 9.7 13.6 3.9 75.6 NW30.45- 63.5 67.3 57.2---
2024-07-23 08:10 am NW 11.7 15.5 3.9-5.6 NW30.45- 63.9 67.3 57.2---
2024-07-23 08:00 amNNW 11.7 13.6----30.45+0.00 63.9 67.3 56.8---
2024-07-23 07:50 amNNW 9.7 13.6 3.9 85.4NNW30.45- 63.7 67.3 56.8---
2024-07-23 07:40 am NW 11.7 15.5----30.45- 63.5 67.3 57.0---
2024-07-23 07:30 am NW 11.7 13.6----30.45- 63.5 67.3 57.4---
2024-07-23 07:20 amNNW 9.7 15.5 3.9 85.7 NW30.45- 63.9 67.3 56.5---
2024-07-23 07:10 amNNW 13.6 17.5 3.9-5.7 NW30.45- 63.7 67.3 56.8---
2024-07-23 07:00 am NW 11.7 13.6----30.45-0.01 63.3 67.3 57.2---
2024-07-23 06:50 am NW 13.6 15.5 3.6 85.8NNW30.45- 63.7 67.3 57.2---
2024-07-23 06:40 am NW 11.7 15.5----30.45- 63.7 67.3 57.0---
2024-07-23 06:30 am NW 9.7 13.6----30.45- 63.3 67.3 57.2---
2024-07-23 06:20 am NW 11.7 15.5 3.6 145.7 S30.45- 63.5 67.3 57.7---
2024-07-23 06:10 amNNW 9.7 15.5 3.6-5.7 S30.45- 63.7 67.3 57.2---
2024-07-23 06:00 amNNW 9.7 13.6----30.45-0.02 63.5 67.3 56.5---
2024-07-23 05:50 amNNW 9.7 13.6 3.6 75.5 NW30.45- 63.7 67.3 57.0---
2024-07-23 05:40 amNNW 11.7 15.5----30.45- 63.7 67.3 56.8---
2024-07-23 05:30 amNNW 13.6 15.5----30.44- 63.7 67.3 57.2---
2024-07-23 05:20 amNNW 11.7 13.6 3.6 85.6 NW30.44- 63.5 67.3 57.7---
2024-07-23 05:10 am N 9.7 13.6 3.6-5.6 NW30.45- 63.3 67.3 57.9---
2024-07-23 05:00 amNNW 9.7 13.6----30.45-0.03 63.1 67.3 57.9---
2024-07-23 04:50 am N 9.7 13.6 3.9 75.8 NW30.45- 63.1 67.3 58.1---
2024-07-23 04:40 am N 11.7 13.6----30.45- 63.3 67.3 57.7---
2024-07-23 04:30 amNNW 9.7 11.7----30.45- 63.5 67.3 57.4---
2024-07-23 04:20 amNNW 9.7 11.7 3.9 85.9 NW30.45- 63.7 67.3 57.0---
2024-07-23 04:10 amNNW 9.7 13.6 3.9-5.9 NW30.45- 63.9 67.3 56.5---
2024-07-23 04:00 amNNW 9.7 13.6----30.45-0.02 64.0 67.3 56.5---
2024-07-23 03:50 amNNW 9.7 11.7 3.9 75.7 NW30.46- 64.0 67.3 56.3---
2024-07-23 03:40 amNNW 9.7 11.7 3.9-5.7 NW30.46- 64.0 67.3 56.5---
2024-07-23 03:30 amNNW 7.8 9.7----30.46- 63.9 67.3 56.3---
2024-07-23 03:20 amNNW 7.8 11.7 3.6 85.5 NW30.46- 63.9 67.3 56.3---
2024-07-23 03:10 amNNW 7.8 9.7 3.6-5.5 NW30.46- 63.7 67.3 56.1---
2024-07-23 03:00 amNNW 7.8 9.7----30.46-0.01 63.7 67.3 56.1---
2024-07-23 02:50 am N 5.8 9.7 3.9 75.4 NW30.47- 63.5 67.3 55.8---
2024-07-23 02:40 amNNW 9.7 11.7----30.47- 63.7 67.3 55.9---
2024-07-23 02:30 amNNW 7.8 11.7----30.47- 63.5 67.3 55.6---
2024-07-23 02:20 amNNW 9.7 13.6 3.9 75.3 NW30.47- 63.5 67.3 55.4---
2024-07-23 02:10 am N 5.8 9.7 3.9-5.3 NW30.47- 63.3 67.3 55.2---
2024-07-23 02:00 am N 7.8 11.7----30.47+0.00 63.5 67.3 55.4---
2024-07-23 01:50 am N 9.7 11.7 3.9 75.4 NW30.47- 63.3 67.3 55.0---
2024-07-23 01:40 am N 9.7 13.6----30.48- 63.5 67.3 55.4---
2024-07-23 01:30 amNNW 9.7 13.6----30.48- 63.5 67.3 55.4---
2024-07-23 01:20 am N 9.7 13.6 3.9 75.4 NW30.48- 63.5 67.3 55.4---
2024-07-23 01:10 amNNW 7.8 11.7 3.9-5.4 NW30.48- 63.5 67.3 55.0---
2024-07-23 01:00 amNNW 11.7 13.6----30.48+0.01 63.5 67.3 55.0---
2024-07-23 12:50 amNNW 9.7 13.6 3.6 75.1 NW30.48- 63.5 67.3 55.2---
2024-07-23 12:40 am N 9.7 13.6----30.48- 63.7 67.3 55.2---
2024-07-23 12:30 am N 9.7 11.7----30.48- 63.9 67.3 55.4---
2024-07-23 12:20 am N 9.7 11.7 3.6 145.2SSW30.47- 63.7 67.3 54.9---
2024-07-23 12:10 am N 9.7 15.5 3.6-5.2SSW30.47- 63.7 67.3 54.9---
2024-07-23 12:00 am N 7.8 13.6----30.48+0.02 63.7 67.3 55.0---
2024-07-22 11:50 pm N 9.7 13.6 3.6 135.2SSW30.47- 63.7 67.3 55.0---

Detailed Wave Summary
for 46006 as of
(11:10 pm PDT on 07/23/2024)
0610 GMT on 07/24/2024:

These wave data are displayed in rounded times.

     

Click on the graph icon in the table below to see a time series plot of the last five days of that observation.

5-day plot - Significant Wave Height Significant Wave Height (WVHT): 5.6 ft
5-day plot - Swell Height Swell Height (SwH): 3.6 ft
5-day plot - Swell Period Swell Period (SwP): 8.3 sec
5-day plot - Swell Direction Swell Direction (SwD):NNW
5-day plot - Wind Wave Height Wind Wave Height (WWH): 3.9 ft
5-day plot - Wind Wave Period Wind Wave Period (WWP): 5.9 sec
5-day plot - Wind Wave Direction Wind Wave Direction (WWD):NNW
5-day plot - Wave Steepness Wave Steepness (STEEPNESS): AVERAGE
5-day plot - Average Wave Period Average Wave Period (APD): 5.2 sec
Previous observations
TIME
(PDT)
5-day plot - Wave Height
WVHT
ft
5-day plot - Swell Height
SwH
ft
5-day plot - Swell Period
SwP
sec
5-day plot - Swell Direction
SwD
 
5-day plot - Wind Wave Height
WWH
ft
5-day plot - Wind Wave Period
WWP
sec
5-day plot - Wind Wave Direction
WWD
 
5-day plot - Wave Steepness
STEEPNESS
 
5-day plot - Average Wave Period
APD
sec
2024-07-23 10:40 pm 5.6 3.6 7.1NNW 3.9 6.2 NNW STEEP 5.4
2024-07-23 10:10 pm 5.6 3.3 9.1 NW 4.6 5.9 NNW AVERAGE 5.3
2024-07-23 09:40 pm 5.6 3.3 8.3NNW 4.6 7.1 NNW AVERAGE 5.3
2024-07-23 09:10 pm 6.2 3.6 8.3NNW 4.9 5.3 NNW AVERAGE 5.5
2024-07-23 08:40 pm 5.2 3.0 8.3NNW 4.3 6.7 NNW AVERAGE 5.0
2024-07-23 08:10 pm 5.6 3.0 8.3NNW 4.6 5.0 NNW AVERAGE 5.2
2024-07-23 07:40 pm 5.6 3.6 9.1NNW 4.3 7.1 NNW AVERAGE 5.4
2024-07-23 07:10 pm 5.2 3.3 8.3NNW 4.3 6.7 NNW AVERAGE 5.4
2024-07-23 06:40 pm 5.2 3.6 8.3NNW 3.9 7.1 NNW AVERAGE 5.4
2024-07-23 06:10 pm 5.2 3.9 7.7NNW 3.6 6.2 NNW AVERAGE 5.6
2024-07-23 05:40 pm 5.9 4.6 8.3NNW 3.6 6.7 NNW AVERAGE 5.7
2024-07-23 05:10 pm 5.6 4.3 9.1NNW 3.6 6.7 NNW AVERAGE 5.6
2024-07-23 04:40 pm 5.2 3.9 8.3NNW 3.3 5.9 NNW AVERAGE 5.6
2024-07-23 04:10 pm 5.2 3.9 9.1NNW 3.6 5.9 NNW AVERAGE 5.6
2024-07-23 03:40 pm 5.2 3.9 7.7NNW 3.3 6.7 NNW AVERAGE 5.8
2024-07-23 03:10 pm 5.2 4.3 8.3NNW 3.0 5.9 NNW AVERAGE 5.6
2024-07-23 02:40 pm 4.6 3.6 7.7NNW 3.3 5.3 NNW AVERAGE 5.5
2024-07-23 02:10 pm 4.6 3.9 7.7 NW 3.0 5.6 NNW AVERAGE 5.5
2024-07-23 01:40 pm 4.6 3.9 9.1NNW 2.6 4.5 NNW SWELL 5.5
2024-07-23 01:10 pm 4.6 3.6 7.7 NW 3.0 6.2 NNW AVERAGE 5.6
2024-07-23 12:40 pm 4.3 3.6 8.3NNW 2.3 5.0 NNW AVERAGE 5.5
2024-07-23 12:10 pm 4.6 3.9 8.3NNW 2.3 4.8 N AVERAGE 5.5
2024-07-23 11:40 am 4.6 3.9 7.7NNW 2.6 5.9 NNW AVERAGE 5.7
2024-07-23 11:10 am 4.3 3.9 7.7NNW 2.0 3.7 NNW AVERAGE 5.4
2024-07-23 10:40 am 4.6 3.6 7.1NNW 2.6 6.2 NNW STEEP 5.8
2024-07-23 10:10 am 4.3 3.6 7.1 NW 2.3 4.8 NNW STEEP 5.5
2024-07-23 09:40 am 3.9 3.3 7.7NNW 2.6 5.6 NNW AVERAGE 5.4
2024-07-23 09:10 am 3.9 3.3 7.7 NW 2.3 5.6 NNW AVERAGE 5.6
2024-07-23 08:40 am 3.6 3.0 13.8 S 2.0 4.8 NNW SWELL 5.6
2024-07-23 08:10 am 3.9 3.3 7.1 NW 2.3 5.3 NNW AVERAGE 5.6
2024-07-23 07:40 am 3.9 3.3 7.7NNW 2.0 5.0 NW AVERAGE 5.4
2024-07-23 07:10 am 3.9 3.0 7.7 NW 2.3 5.6 NW AVERAGE 5.7
2024-07-23 06:40 am 3.6 3.3 7.7NNW 1.6 5.3 NNW AVERAGE 5.8
2024-07-23 06:10 am 3.6 3.0 13.8 S 1.6 4.3 NNW SWELL 5.7
2024-07-23 05:40 am 3.6 3.0 7.1 NW 2.0 5.3 NNW AVERAGE 5.5
2024-07-23 05:10 am 3.6 3.3 7.7 NW 1.6 4.8 NW AVERAGE 5.6
2024-07-23 04:40 am 3.9 3.6 7.1 NW 2.0 5.3 NNW AVERAGE 5.8
2024-07-23 04:10 am 3.9 3.6 7.7 NW 1.3 3.7 NNW AVERAGE 5.9
2024-07-23 03:40 am 3.9 3.3 7.1 NW 1.6 4.5 NNW AVERAGE 5.7
2024-07-23 03:10 am 3.6 3.6 7.7 NW 1.3 3.7 NNW AVERAGE 5.5
2024-07-23 02:40 am 3.9 3.6 7.1 NW 1.6 4.2 NNW AVERAGE 5.4
2024-07-23 02:10 am 3.9 3.6 7.1 NW 1.6 3.6 NNW AVERAGE 5.3
2024-07-23 01:40 am 3.9 3.6 7.1 NW 1.6 4.3 NNW AVERAGE 5.4
2024-07-23 01:10 am 3.9 3.6 7.1 NW 1.6 3.8 N AVERAGE 5.4
2024-07-23 12:40 am 3.6 3.0 6.7 NW 2.0 4.2 NNW STEEP 5.1
2024-07-23 12:10 am 3.6 3.0 13.8SSW 2.0 4.5 NNW SWELL 5.2

Plot of wave energy versus frequency (and period)